This is the latest recevied weather packets stored in our database for station/object I8ZSE-10. If no packets are shown the sender has not sent any weather packets the latest 1 day(s).
| Time | Temp. | Humidity | Pressure | Rain* | Wind** | Luminosity | Snow |
|---|---|---|---|---|---|---|---|
| 1778011208 | 14.44° C | 71% | 1016.8 hPa | 0 mm | 0.89 m/s, 261° | - | - |
| 1778010608 | 14.44° C | 73% | 1016.8 hPa | 0 mm | 0.45 m/s, 269° | - | - |
| 1778010008 | 14.44° C | 74% | 1016.7 hPa | 0 mm | 0.45 m/s, 265° | - | - |
| 1778009408 | 14.44° C | 74% | 1016.7 hPa | 0 mm | 0.45 m/s, 248° | - | - |
| 1778008808 | 15° C | 72% | 1016.8 hPa | 0 mm | 0.89 m/s, 218° | - | - |
| 1778008208 | 15° C | 70% | 1016.8 hPa | 0 mm | 0.45 m/s, 251° | - | - |
| 1778007608 | 15° C | 68% | 1016.8 hPa | 0 mm | 0.45 m/s, 247° | - | - |
| 1778007008 | 15° C | 65% | 1016.9 hPa | 0 mm | 0.45 m/s, 246° | - | - |
| 1778006408 | 15° C | 67% | 1016.9 hPa | 0 mm | 0.45 m/s, 246° | - | - |
| 1778005809 | 15° C | 68% | 1016.9 hPa | 0 mm | 0.89 m/s, 235° | - | - |
| 1778005208 | 15° C | 68% | 1016.9 hPa | 0 mm | 0.89 m/s, 224° | - | - |
| 1778004608 | 15° C | 66% | 1016.8 hPa | 0 mm | 0.45 m/s, 230° | - | - |
| 1778004008 | 15° C | 63% | 1016.9 hPa | 0 mm | 0.45 m/s, 226° | - | - |
| 1778003408 | 15.56° C | 61% | 1017 hPa | 0 mm | 0.45 m/s, 244° | - | - |
| 1778002808 | 15.56° C | 61% | 1017 hPa | 0 mm | 0.89 m/s, 229° | - | - |
| 1778002208 | 15.56° C | 61% | 1017 hPa | 0 mm | 0.89 m/s, 254° | - | - |
| 1778001608 | 16.11° C | 61% | 1017.1 hPa | 0 mm | 0.89 m/s, 241° | - | - |
| 1778001008 | 15.56° C | 63% | 1017.1 hPa | 0 mm | 0.89 m/s, 251° | - | - |
| 1778000408 | 15.56° C | 63% | 1017.2 hPa | 0 mm | 0.89 m/s, 249° | - | - |
| 1777999808 | 16.11° C | 63% | 1017.3 hPa | 0 mm | 0.89 m/s, 256° | - | - |
| 1777999208 | 16.11° C | 64% | 1017.4 hPa | 0 mm | 0.89 m/s, 259° | - | - |
| 1777998608 | 16.11° C | 64% | 1017.5 hPa | 0 mm | 1.34 m/s, 253° | - | - |
| 1777998008 | 16.11° C | 65% | 1017.5 hPa | 0 mm | 1.34 m/s, 278° | - | - |
| 1777997408 | 15.56° C | 66% | 1017.4 hPa | 0 mm | 1.34 m/s, 272° | - | - |
| 1777996809 | 16.11° C | 65% | 1017.4 hPa | 0 mm | 1.34 m/s, 263° | - | - |
* Rain latest hour (hover to see other rain measurements)
** Current wind speed in m/s (hover to see current wind gust speed)